Location: Kerb�bon
(47.7970°N, 3.3487°W)
Time: 13:24:44
(UTC+00:00)

CARTOSAT-1 - Pass Details

Date: 12 May 2021
Orbit: 616 x 618 km, 97.8° (Epoch: 18 June)

Event Time Altitude Azimuth Distance (km) Brightness Sun altitude
Exits shadow 21:13:15 20° 146° (SE) 1,449 4.8 -13.0°
Maximum altitude 21:16:07 58° 73° (ENE) 727 3.7 -13.3°
Drops below altitude 10° 21:20:22 10° 354° (N) 1,993 7.0 -13.8°
Sets 21:22:35 0° 351° (N) 2,903 8.1 -14.0°
